Station DPHA1 - Dauphin Island Sea Lab, AL Image indicating link to RSS feed of recent meteorological observations for station DPHA1


Conditions at DPHA1 as of
(4:30 am CDT)
0930 GMT on 06/24/2024:
Note: This report is more than two hours old
     

Click on the graph icon in the table below to see a time series plot of the last five days of that observation.

5-day plot - Atmospheric Pressure Atmospheric Pressure (PRES):29.42 in
5-day plot - Air Temperature Air Temperature (ATMP): 82.9 °F
5-day plot - Water Temperature Water Temperature (WTMP): 85.5 °F
Previous observations
TIME
(CDT)
5-day plot - Wind Direction
WDIR
 
5-day plot - Wind Speed
WSPD
kts
5-day plot - Wind Gust
GST
kts
5-day plot - Wave Height
WVHT
ft
5-day plot - Dominant Wave Period
DPD
sec
5-day plot - Average Wave Period
APD
sec
5-day plot - Mean Wave Direction
MWD
 
5-day plot - Atmospheric Pressure
PRES
in
5-day plot - Pressure Tendency
PTDY
in
5-day plot - Air Temperature
ATMP
°F
5-day plot - Water Temperature
WTMP
°F
5-day plot - Dew Point
DEWP
°F
5-day plot - Salinity
SAL
psu
5-day plot - Visibility
VIS
nmi
5-day plot - Tide (above MLLW)
TIDE
ft
2024-06-24 04:00 am-------29.41-0.01 84.2 85.5----
2024-06-24 03:30 am-------29.41- 84.2 85.8----
2024-06-24 03:00 am-------29.42+0.00 84.0 85.8----
2024-06-24 02:30 am-------29.41- 84.0 86.0----
2024-06-24 02:00 am-------29.42+0.00 84.0 86.4----
2024-06-24 01:30 am-------29.42- 84.0 86.4----
2024-06-24 01:00 am-------29.43+0.01 84.0 86.4----
2024-06-24 12:30 am-------29.42- 83.8 86.2----
2024-06-24 12:00 am-------29.42+0.02 83.8 86.0----
2024-06-23 11:30 pm-------29.42- 84.0 86.2----
2024-06-23 11:00 pm-------29.42+0.02 84.2 86.2----
2024-06-23 10:30 pm-------29.41- 84.2 86.4----
2024-06-23 10:00 pm-------29.41+0.02 84.4 86.4----
2024-06-23 09:30 pm-------29.41- 84.4 86.4----
2024-06-23 09:00 pm-------29.40+0.00 84.6 86.5----
2024-06-23 08:30 pm-------29.40- 84.6 86.5----
2024-06-23 08:00 pm-------29.39-0.01 84.6 86.5----
2024-06-23 07:30 pm-------29.40- 85.5 86.5----
2024-06-23 07:00 pm-------29.39-0.04 85.8 86.7----
2024-06-23 06:30 pm-------29.40- 86.4 88.0----
2024-06-23 06:00 pm-------29.40-0.05 86.7 89.4----
2024-06-23 05:30 pm-------29.40- 87.1 89.2----
2024-06-23 05:00 pm-------29.41-0.06 86.5 89.2----
2024-06-23 04:30 pm-------29.42- 87.6 89.2----
2024-06-23 04:00 pm-------29.43-0.07 86.9 88.9----
2024-06-23 03:30 pm-------29.44- 86.4 88.7----
2024-06-23 03:00 pm-------29.45-0.07 86.5 88.3----
2024-06-23 02:30 pm-------29.47- 86.5 87.8----
2024-06-23 02:00 pm-------29.47-0.04 86.5 87.4----
2024-06-23 01:30 pm-------29.48- 85.8 87.4----
2024-06-23 01:00 pm-------29.50-0.01 85.6 87.1----
2024-06-23 12:30 pm-------29.51- 85.5 86.9----
2024-06-23 12:00 pm-------29.52+0.01 84.9 86.5----
2024-06-23 11:30 am-------29.52- 83.5 86.4----
2024-06-23 11:00 am-------29.51+0.01 83.7 86.2----
2024-06-23 10:30 am-------29.51- 83.1 86.0----
2024-06-23 10:00 am-------29.51+0.03 82.8 85.6----
2024-06-23 09:30 am-------29.52- 82.8 85.5----
2024-06-23 09:00 am-------29.51+0.03 82.0 85.5----
2024-06-23 08:30 am-------29.50- 83.8 85.3----
2024-06-23 08:00 am-------29.50+0.03 83.1 85.5----
2024-06-23 07:30 am-------29.50- 83.5 85.5----
2024-06-23 07:00 am-------29.49+0.03 82.4 84.9----